Printer-friendly version

IAU Minor Planet Center

Minor Planet Center

MPEC 2010-G79 : 2010 GE25

The following Minor Planet Electronic Circular may be linked-to from your own Web pages, but must not otherwise be redistributed electronically.

A form allowing access to any MPEC is at the bottom of this page.


Read MPEC 2010-G78 Read MPEC 2010-G80


M.P.E.C. 2010-G79                                Issued 2010 Apr. 10, 22:01 UT

     The Minor Planet Electronic Circulars contain information on unusual
         minor planets and routine data on comets.  They are published
   on behalf of Commission 20 of the International Astronomical Union by the
          Minor Planet Center, Smithsonian Astrophysical Observatory,
                          Cambridge, MA 02138, U.S.A.

             Prepared using the Tamkin Foundation Computer Network

                              MPC@CFA.HARVARD.EDU
       URL http://www.minorplanetcenter.org/iau/mpc.html  ISSN 1523-6714

                                   2010 GE25

Observations:
     K10G25E* S2010 04 01.87455 07 02 29.27 -00 35 55.1          21   R EG079C51
     K10G25E  s2010 04 01.87455 1 -  872.7200 + 6855.6073 +   62.3217   EG079C51
     K10G25E  S2010 04 02.27133 07 02 55.68 -00 53 10.7                 EG079C51
     K10G25E  s2010 04 02.27133 1 -  934.2387 + 6847.3427 -   49.7574   EG079C51
     K10G25E  S2010 04 02.46985 07 03 09.05 -01 01 46.7                 EG079C51
     K10G25E  s2010 04 02.46985 1 -  953.8623 + 6845.0721 -   22.1236   EG079C51
     K10G25E  S2010 04 02.60216 07 03 18.06 -01 07 32.1                 EG079C51
     K10G25E  s2010 04 02.60216 1 -  970.7487 + 6842.5597 -   33.0409   EG079C51
     K10G25E  S2010 04 02.86676 07 03 36.07 -01 18 59.9                 EG079C51
     K10G25E  s2010 04 02.86676 1 - 1004.2501 + 6837.7648 -   50.0628   EG079C51
     K10G25E HC2010 04 09.14761 07 11 30.02 -05 46 34.9                 EG079291
     K10G25E HC2010 04 09.15550 07 11 30.55 -05 46 55.3                 EG079291
     K10G25E 6C2010 04 09.17236407 11 31.72 -05 47 37.0          19.9 R EG079705
     K10G25E 6C2010 04 09.17381007 11 31.84 -05 47 40.4                 EG079705
     K10G25E 6C2010 04 09.17501407 11 31.92 -05 47 43.2          20.0 R EG079705
     K10G25E 6C2010 04 09.17622107 11 32.00 -05 47 46.6          19.9 R EG079705
     K10G25E 6C2010 04 09.17742907 11 32.09 -05 47 49.4          19.6 R EG079705
     K10G25E cC2010 04 10.07265607 12 46.93 -06 25 17.0                 EG079H21
     K10G25E IC2010 04 10.08917707 12 48.25 -06 25 57.4                 EG079H21
     K10G25E  C2010 04 10.12015 07 12 51.01 -06 27 13.1          21.3 R EG079926
     K10G25E  C2010 04 10.12635 07 12 51.50 -06 27 29.1          21.3 R EG079926
     K10G25E  C2010 04 10.13729 07 12 52.29 -06 27 56.4          20.1 R EG079H01
     K10G25E  C2010 04 10.14099 07 12 52.58 -06 28 05.5          20.1 R EG079H01
     K10G25E  C2010 04 10.14709 07 12 53.06 -06 28 20.9          20.2 R EG079H01
     K10G25E  C2010 04 10.15247 07 12 53.48 -06 28 34.4          20.0 R EG079H01
     K10G25E HC2010 04 10.15990 07 12 54.26 -06 28 54.1                 EG079291
     K10G25E HC2010 04 10.16355 07 12 54.36 -06 29 02.0                 EG079291
     K10G25E HC2010 04 10.16736 07 12 54.82 -06 29 10.4                 EG079291

Observer details:
291 LPL/Spacewatch II.  Observer T. H. Bressi.  1.8-m f/2.7 reflector + CCD.
705 Apache Point.  Observer W. Bhatti.  Measurers M. Micheli, T. Grav.  3.5-m
    reflector + CCD.
926 Tenagra II Observatory.  Observers P. R. Holvorcem, M. Schwartz.  Measurer
    P. R. Holvorcem.  0.81-m f/7 Ritchey-Chretien + CCD.
H01 Magdalena Ridge Observatory, Socorro.  Observers W. H. Ryan, E. V. Ryan.
    Measurer W. H. Ryan.  2.4-m f/8.9 reflector + CCD.
H21 Astronomical Research Observatory, Westfield.  Observer R. Holmes.
    Measurer S. Foglia.
C51 WISE.  Measurers A. Mainzer, E. Wright, J. Bauer, T. Grav, J. Dailey, J.
    Masiero, R. Cutri, R. McMillan, R. Walker.
    (http://wise.ssl.berkeley.edu/mission_sci.html)

Orbital elements:
2010 GE25                                                Earth MOID = 0.2158 AU
Epoch 2010 July 23.0 TT = JDT 2455400.5                 MPC
M  28.16323              (2000.0)            P               Q
n   0.33653970     Peri.  235.08070     -0.90729614     +0.36379432
a   2.0469718      Node   324.85052     -0.15054676     -0.74928292
e   0.4660351      Incl.   21.48652     -0.39261862     -0.55337943
P   2.93           H   19.7           G   0.15           U   8
Residuals in seconds of arc
100401 C51  1.5+  0.0     100409 705  0.5-  0.2+    100410 H01  0.5-  0.2+
100402 C51  0.1+  0.6-    100409 705  0.7-  0.4+    100410 H01  0.5-  0.3+
100402 C51  0.3-  0.6+    100409 705  0.9-  0.0     100410 H01  0.5-  0.2+
100402 C51  0.1+  0.4-    100409 705  1.0-  0.3+    100410 H01  0.6-  0.1+
100402 C51  0.9-  0.3-    100410 H21  0.7-  0.7-    100410 291  1.5+  1.5-
100409 291  1.4+  0.1-    100410 H21  0.4-  0.1+    100410 291  1.3-  0.3-
100409 291  0.3+  0.7-    100410 926  0.2-  0.1+    100410 291  1.1+  0.8+
100409 705  0.6-  0.0     100410 926  0.1-  0.4-

Ephemeris:
2010 GE25                a,e,i = 2.05, 0.47, 21                  q = 1.0930
Date    TT    R. A. (2000) Decl.     Delta      r     Elong.  Phase     V
2010 04 04    07 04.92   -02 07.9    0.472    1.132    93.6    61.9    20.5
2010 04 14    07 18.56   -09 07.3    0.487    1.108    89.1    64.8    20.7
2010 04 24    07 35.53   -15 48.4    0.501    1.095    86.4    66.4    20.7
2010 05 04    07 55.82   -22 14.8    0.513    1.094    85.4    66.8    20.8
2010 05 14    08 20.09   -28 27.2    0.523    1.104    85.9    66.0    20.8
2010 05 24    08 49.61   -34 24.4    0.532    1.125    87.7    64.1    20.9
2010 06 03    09 26.05   -39 58.5    0.543    1.155    90.6    61.4    20.9
2010 06 13    10 11.29   -44 52.0    0.558    1.195    94.3    58.0    20.9
2010 06 23    11 06.29   -48 38.3    0.582    1.241    98.2    54.1    21.0
2010 07 03    12 09.05   -50 46.8    0.616    1.293   101.9    50.3    21.1
2010 07 13    13 14.11   -51 02.1    0.666    1.349   104.7    46.8    21.2
2010 07 23    14 14.99   -49 39.0    0.732    1.409   106.3    43.8    21.5
2010 08 02    15 07.87   -47 12.2    0.815    1.470   106.4    41.5    21.7
2010 08 12    15 52.43   -44 16.4    0.915    1.533   105.2    39.7    22.0

Carl W. Hergenrother         (C) Copyright 2010 MPC           M.P.E.C. 2010-G79

Read MPEC 2010-G78 Read MPEC 2010-G80


MPEC number:

Enter an MPEC number in one of the following forms:

  • 1997-B01 (the full form)
  • J97B01 (the packed version of the full form)
  • B01 (the abbreviated form)

Valid HTML 4.01!